GW7488 Weather Reports


time (UTC)temp
C
wind
direction
speed
KPH
gust
KPH
rain 1hr
cm
rain 24hr
cm
rain mn
cm
humidity
%
barometer
mb
20260906213015 31 158 9.7 12.9 0.00 0.00 0.00 30 1008.2
20260906212515 31 132 6.4 17.7 0.00 0.00 0.00 31 1008.2
20260906212015 31 80 9.7 12.9 0.00 0.00 0.00 31 1008.4
20260906211515 31 187 6.4 22.5 0.00 0.00 0.00 30 1008.7
20260906211015 31 146 8.0 14.5 0.00 0.00 0.00 31 1008.7
20260906210514 31 176 4.8 11.3 0.00 0.00 0.00 30 1008.7
20260906210014 31 118 9.7 12.9 0.00 0.00 0.00 30 1008.9
20260906205513 31 172 3.2 20.9 0.00 0.00 0.00 30 1009.1
20260906205013 31 162 14.5 20.9 0.00 0.00 0.00 31 1009.2
20260906204513 31 131 12.9 17.7 0.00 0.00 0.00 32 1009.2
20260906204013 31 206 3.2 16.1 0.00 0.00 0.00 34 1009.1
20260906203513 31 199 3.2 11.3 0.00 0.00 0.00 33 1009.5
20260906203013 30 169 9.7 19.3 0.00 0.00 0.00 34 1009.6
20260906202513 31 55 4.8 14.5 0.00 0.00 0.00 34 1009.8
20260906202012 31 95 6.4 8.0 0.00 0.00 0.00 33 1009.7
20260906201513 30 130 9.7 16.1 0.00 0.00 0.00 33 1009.8
20260906201012 30 151 8.0 14.5 0.00 0.00 0.00 34 1010.2
20260906200512 30 115 6.4 8.0 0.00 0.00 0.00 34 1010.3
20260906200010 30 125 6.4 9.7 0.00 0.00 0.00 32 1010.2
20260906194955 30 245 3.2 9.7 0.00 0.00 0.00 33 1010.3
20260906194454 30 199 8.0 9.7 0.00 0.00 0.00 33 1010.6
20260906193954 30 87 3.2 16.1 0.00 0.00 0.00 33 1010.9
20260906193454 30 138 11.3 14.5 0.00 0.00 0.00 32 1010.9
20260906192954 30 150 6.4 8.0 0.00 0.00 0.00 33 1011.2
20260906192453 30 204 6.4 12.9 0.00 0.00 0.00 32 1010.9
20260906191953 30 189 6.4 14.5 0.00 0.00 0.00 33 1011.2
20260906191453 30 163 6.4 9.7 0.00 0.00 0.00 33 1011.2
20260906190953 30 193 6.4 16.1 0.00 0.00 0.00 33 1011.5
20260906190453 30 159 3.2 17.7 0.00 0.00 0.00 33 1011.6
20260906185952 30 171 6.4 6.4 0.00 0.00 0.00 32 1012.0
20260906185452 30 132 6.4 6.4 0.00 0.00 0.00 31 1011.6
20260906184437 30 142 3.2 6.4 0.00 0.00 0.00 32 1012.5
20260906183936 30 269 1.6 6.4 0.00 0.00 0.00 31 1012.5
20260906182921 30 139 1.6 9.7 0.00 0.00 0.00 33 1013.0
20260906182421 29 162 9.7 11.3 0.00 0.00 0.00 33 1012.9
20260906181921 29 233 8.0 8.0 0.00 0.00 0.00 34 1013.1
20260906180906 29 151 6.4 9.7 0.00 0.00 0.00 33 1013.3
20260906180406 28 254 8.0 8.0 0.00 0.00 0.00 34 1013.4
20260906175905 29 179 6.4 9.7 0.00 0.00 0.00 34 1013.7
20260906175405 30 48 3.2 9.7 0.00 0.00 0.00 33 1013.6
20260906174905 29 110 3.2 6.4 0.00 0.00 0.00 33 1013.8
20260906173335 29 233 4.8 9.7 0.00 0.00 0.00 34 1014.2
20260906172834 28 142 3.2 6.4 0.00 0.00 0.00 35 1014.1
20260906172334 28 153 6.4 12.9 0.00 0.00 0.00 35 1014.4
20260906171834 28 247 3.2 4.8 0.00 0.00 0.00 36 1014.4
20260906171334 28 168 4.8 11.3 0.00 0.00 0.00 34 1014.9
20260906170834 28 253 0.0 4.8 0.00 0.00 0.00 35 1015.0
20260906170334 28 176 3.2 6.4 0.00 0.00 0.00 35 1014.9
20260906165834 27 234 1.6 6.4 0.00 0.00 0.00 36 1015.0
20260906164818 28 200 1.6 6.4 0.00 0.00 0.00 34 1015.1
20260906164318 28 243 3.2 8.0 0.00 0.00 0.00 35 1015.4
20260906163818 28 186 0.0 4.8 0.00 0.00 0.00 32 1015.3
20260906163318 28 198 0.0 6.4 0.00 0.00 0.00 33 1015.3
20260906162818 27 137 3.2 8.0 0.00 0.00 0.00 34 1015.5
20260906162317 27 146 3.2 6.4 0.00 0.00 0.00 33 1015.3
20260906161817 27 218 3.2 6.4 0.00 0.00 0.00 34 1015.4
20260906161316 27 230 1.6 6.4 0.00 0.00 0.00 35 1015.5
20260906155230 26 249 3.2 4.8 0.00 0.00 0.00 36 1015.6
20260906154730 26 247 1.6 4.8 0.00 0.00 0.00 37 1015.5
20260906153713 26 138 6.4 6.4 0.00 0.00 0.00 37 1015.5
20260906153213 26 148 4.8 4.8 0.00 0.00 0.00 36 1015.4
20260906152712 26 190 4.8 6.4 0.00 0.00 0.00 36 1015.6
20260906152212 26 292 3.2 3.2 0.00 0.00 0.00 37 1015.7
20260906151712 26 78 3.2 6.4 0.00 0.00 0.00 35 1015.7
20260906151211 26 118 4.8 4.8 0.00 0.00 0.00 35 1015.6
20260906150711 26 100 1.6 4.8 0.00 0.00 0.00 37 1015.5
20260906145656 25 321 0.0 3.2 0.00 0.00 0.00 38 1015.7
20260906145156 23 348 3.2 3.2 0.00 0.00 0.00 40 1015.2
20260906144655 23 347 3.2 4.8 0.00 0.00 0.00 42 1015.6
20260906144155 23 313 1.6 4.8 0.00 0.00 0.00 44 1015.3
20260906143140 22 333 3.2 4.8 0.00 0.00 0.00 43 1015.4
20260906142640 22 259 3.2 3.2 0.00 0.00 0.00 42 1015.5
20260906142139 22 312 0.0 3.2 0.00 0.00 0.00 45 1015.4
20260906141639 22 311 1.6 1.6 0.00 0.00 0.00 45 1015.4
20260906140109 21 33 1.6 4.8 0.00 0.00 0.00 45 1014.9
20260906135609 21 321 3.2 8.0 0.00 0.00 0.00 44 1015.0
20260906135108 21 309 3.2 6.4 0.00 0.00 0.00 44 1015.1
20260906134053 20 296 8.0 11.3 0.00 0.00 0.00 44 1014.9
20260906133553 20 357 3.2 8.0 0.00 0.00 0.00 46 1015.0
20260906132538 19 353 4.8 4.8 0.00 0.00 0.00 50 1014.7
20260906132038 19 20 4.8 8.0 0.00 0.00 0.00 53 1014.4
20260906131022 18 38 3.2 3.2 0.00 0.00 0.00 52 1014.4
20260906130522 18 17 4.8 6.4 0.00 0.00 0.00 53 1014.4
20260906130022 17 18 4.8 4.8 0.00 0.00 0.00 55 1014.2
20260906125522 17 335 0.0 6.4 0.00 0.00 0.00 57 1014.1
20260906125022 17 24 6.4 6.4 0.00 0.00 0.00 59 1013.9
20260906124522 16 37 8.0 8.0 0.00 0.00 0.00 62 1014.0
20260906123507 16 25 3.2 3.2 0.00 0.00 0.00 68 1014.0
20260906122449 16 299 0.0 3.2 0.00 0.00 0.00 70 1013.6
20260906121949 16 269 0.0 1.6 0.00 0.00 0.00 70 1013.3
20260906120934 16 55 0.0 1.6 0.00 0.00 0.00 70 1013.4
20260906120434 16 147 0.0 3.2 0.00 0.00 0.00 70 1013.4
20260906115418 16 258 3.2 3.2 0.00 0.00 0.00 70 1013.0
20260906114403 17 252 0.0 3.2 0.00 0.00 0.00 68 1012.5
20260906113903 17 299 1.6 3.2 0.00 0.00 0.00 68 1012.8
20260906112848 17 339 3.2 4.8 0.00 0.00 0.00 68 1012.7
20260906112348 17 21 0.0 3.2 0.00 0.00 0.00 69 1012.5
20260906111848 17 82 1.6 1.6 0.00 0.00 0.00 68 1012.1
20260906111348 17 4 0.0 3.2 0.00 0.00 0.00 68 1011.8
20260906110847 17 35 3.2 4.8 0.00 0.00 0.00 68 1011.9
20260906105832 17 25 0.0 3.2 0.00 0.00 0.00 69 1011.7
20260906105332 17 69 3.2 6.4 0.00 0.00 0.00 69 1011.8
20260906104832 17 31 4.8 6.4 0.00 0.00 0.00 69 1011.7
20260906104332 17 68 0.0 4.8 0.00 0.00 0.00 69 1011.6
20260906103831 17 186 0.0 1.6 0.00 0.00 0.00 70 1011.3
20260906103331 17 261 1.6 3.2 0.00 0.00 0.00 69 1011.2
20260906102831 17 290 3.2 4.8 0.00 0.00 0.00 69 1011.4
20260906101816 17 259 1.6 4.8 0.00 0.00 0.00 67 1011.3
20260906101315 18 262 3.2 9.7 0.00 0.00 0.00 67 1011.2
20260906100815 18 263 4.8 6.4 0.00 0.00 0.00 68 1011.2
20260906095758 18 262 4.8 6.4 0.00 0.00 0.00 68 1011.1
20260906095258 18 291 3.2 6.4 0.00 0.00 0.00 67 1011.2
20260906094757 18 275 4.8 4.8 0.00 0.00 0.00 67 1011.4
20260906094257 18 259 1.6 3.2 0.00 0.00 0.00 66 1011.3
20260906093757 18 269 4.8 6.4 0.00 0.00 0.00 66 1011.0
20260906092742 18 60 0.0 1.6 0.00 0.00 0.00 65 1011.0
20260906092242 18 315 3.2 3.2 0.00 0.00 0.00 64 1011.0
20260906091741 18 212 0.0 1.6 0.00 0.00 0.00 64 1010.9
20260906091241 18 124 0.0 1.6 0.00 0.00 0.00 64 1010.7
20260906090741 18 321 0.0 1.6 0.00 0.00 0.00 64 1010.7
20260906090241 18 172 1.6 3.2 0.00 0.00 0.00 64 1010.4
20260906085740 18 109 3.2 4.8 0.00 0.00 0.00 63 1010.4
20260906085240 18 89 1.6 4.8 0.00 0.00 0.00 63 1010.5
20260906084740 18 25 1.6 1.6 0.00 0.00 0.00 63 1010.3
20260906084240 18 12 0.0 3.2 0.00 0.00 0.00 63 1010.2
20260906083740 18 256 0.0 3.2 0.00 0.00 0.00 63 1010.3
20260906083239 18 37 0.0 4.8 0.00 0.00 0.00 64 1010.3
20260906082224 18 25 3.2 4.8 0.00 0.00 0.00 65 1010.1
20260906081724 18 48 0.0 3.2 0.00 0.00 0.00 66 1010.2
20260906081224 18 352 4.8 4.8 0.00 0.00 0.00 66 1010.0
20260906080724 18 343 3.2 3.2 0.00 0.00 0.00 66 1009.9
20260906080224 18 332 1.6 6.4 0.00 0.00 0.00 65 1009.9
20260906075724 18 1 1.6 4.8 0.00 0.00 0.00 65 1010.1
20260906075224 18 5 3.2 9.7 0.00 0.00 0.00 65 1009.9
20260906073653 19 342 1.6 3.2 0.00 0.00 0.00 62 1009.7
20260906072638 19 0 6.4 8.0 0.00 0.00 0.00 62 1009.6
20260906072138 19 16 4.8 6.4 0.00 0.00 0.00 63 1009.4
20260906071638 19 0 3.2 4.8 0.00 0.00 0.00 63 1009.4
20260906071138 19 1 3.2 4.8 0.00 0.00 0.00 63 1009.5
20260906070122 18 13 6.4 8.0 0.00 0.00 0.00 63 1009.2
20260906065107 18 341 3.2 6.4 0.00 0.00 0.00 63 1009.2
20260906064606 18 37 0.0 4.8 0.00 0.00 0.00 64 1009.3
20260906064107 18 316 1.6 3.2 0.00 0.00 0.00 61 1009.2
20260906063606 19 55 0.0 1.6 0.00 0.00 0.00 60 1009.2
20260906063106 19 214 0.0 0.0 0.00 0.00 0.00 58 1008.9
20260906062606 19 212 0.0 1.6 0.00 0.00 0.00 58 1009.3
20260906062105 19 32 0.0 0.0 0.00 0.00 0.00 59 1008.6
20260906061605 19 322 0.0 0.0 0.00 0.00 0.00 58 1008.7
20260906060550 20 12 0.0 3.2 0.00 0.00 0.00 58 1008.7
20260906060050 20 253 0.0 0.0 0.00 0.00 0.00 57 1008.5
20260906055550 20 238 3.2 3.2 0.00 0.00 0.00 56 1008.4
20260906055050 20 55 0.0 0.0 0.00 0.00 0.00 55 1008.6
20260906054549 20 46 1.6 3.2 0.00 0.00 0.00 55 1008.2
20260906053534 20 129 0.0 1.6 0.00 0.00 0.00 54 1008.2
20260906053034 21 76 0.0 1.6 0.00 0.00 0.00 53 1008.1
20260906052018 21 264 0.0 1.6 0.00 0.00 0.00 52 1008.0
20260906051518 21 256 3.2 3.2 0.00 0.00 0.00 52 1008.0
20260906051018 21 238 0.0 1.6 0.00 0.00 0.00 51 1008.2
20260906050518 21 123 1.6 3.2 0.00 0.00 0.00 50 1008.1
20260906044948 21 129 0.0 1.6 0.00 0.00 0.00 50 1007.7
20260906044447 21 25 0.0 3.2 0.00 0.00 0.00 49 1007.8
20260906043947 21 44 0.0 0.0 0.00 0.00 0.00 50 1008.0
20260906043447 21 142 0.0 3.2 0.00 0.00 0.00 50 1007.9
20260906042946 22 246 0.0 3.2 0.00 0.00 0.00 50 1007.9
20260906042446 22 319 0.0 3.2 0.00 0.00 0.00 50 1007.9
20260906041946 22 264 0.0 3.2 0.00 0.00 0.00 51 1007.9
20260906040416 22 255 3.2 3.2 0.00 0.00 0.00 53 1007.7
20260906035916 22 242 0.0 1.6 0.00 0.00 0.00 53 1007.7
20260906035415 22 129 0.0 0.0 0.00 0.00 0.00 53 1007.9
20260906034915 23 293 0.0 3.2 0.00 0.00 0.00 51 1007.5
20260906034413 23 259 4.8 6.4 0.00 0.00 0.00 51 1007.6
20260906033913 23 298 3.2 3.2 0.00 0.00 0.00 52 1007.6
20260906033412 23 276 3.2 3.2 0.00 0.00 0.00 51 1007.7
20260906031842 24 126 0.0 1.6 0.00 0.00 0.00 51 1007.4
20260906031341 24 212 0.0 1.6 0.00 0.00 0.00 50 1007.4
20260906030841 24 164 0.0 3.2 0.00 0.00 0.00 50 1007.5
20260906030340 24 93 1.6 3.2 0.00 0.00 0.00 50 1007.2
20260906025840 24 96 3.2 4.8 0.00 0.00 0.00 50 1007.1
20260906025339 25 179 3.2 8.0 0.00 0.00 0.00 49 1007.0
20260906024839 25 167 0.0 3.2 0.00 0.00 0.00 49 1007.2
20260906023823 25 125 4.8 16.1 0.00 0.00 0.00 48 1007.0
20260906023323 25 112 6.4 12.9 0.00 0.00 0.00 48 1006.8
20260906021752 26 93 4.8 12.9 0.00 0.00 0.00 46 1006.7
20260906021252 26 71 11.3 20.9 0.00 0.00 0.00 46 1006.8
20260906020751 26 79 9.7 17.7 0.00 0.00 0.00 44 1006.7
20260906020250 25 107 11.3 12.9 0.00 0.00 0.00 37 1006.4
20260906015750 25 40 3.2 3.2 0.00 0.00 0.00 36 1006.1
20260906014735 26 311 0.0 3.2 0.00 0.00 0.00 35 1006.6
20260906014234 26 151 0.0 3.2 0.00 0.00 0.00 34 1006.2
20260906013733 26 142 0.0 1.6 0.00 0.00 0.00 33 1006.2
20260906012718 27 35 1.6 4.8 0.00 0.00 0.00 33 1006.4
20260906012217 27 243 3.2 6.4 0.00 0.00 0.00 33 1006.6
20260906011717 27 291 3.2 3.2 0.00 0.00 0.00 31 1006.4
20260906011216 27 14 1.6 3.2 0.00 0.00 0.00 30 1006.2
20260906010200 28 250 0.0 4.8 0.00 0.00 0.00 29 1006.6
20260906005659 29 271 3.2 4.8 0.00 0.00 0.00 28 1006.6
20260906005159 30 269 0.0 3.2 0.00 0.00 0.00 27 1006.8
20260906004659 30 245 1.6 3.2 0.00 0.00 0.00 27 1007.2
20260906003643 29 8 1.6 3.2 0.00 0.00 0.00 27 1006.9
20260906003142 29 0 3.2 4.8 0.00 0.00 0.00 27 1007.2
20260906002641 29 13 3.2 4.8 0.00 0.00 0.00 27 1007.2
20260906002141 30 338 1.6 4.8 0.00 0.00 0.00 27 1007.5
20260906001640 30 326 3.2 6.4 0.00 0.00 0.00 26 1007.3
20260906001140 30 20 3.2 4.8 0.00 0.00 0.00 26 1007.4
20260906000639 30 268 3.2 6.4 0.00 0.00 0.00 26 1007.5
20260906000138 30 344 3.2 6.4 0.00 0.00 0.00 26 1007.5
20260905235638 31 296 4.8 8.0 0.00 0.00 0.00 26 1007.5
20260905235137 31 290 6.4 6.4 0.00 0.00 0.00 25 1007.8
20260905234637 32 311 0.0 6.4 0.00 0.00 0.00 24 1007.6
20260905234137 31 296 1.6 8.0 0.00 0.00 0.00 24 1007.7
20260905233637 31 295 0.0 6.4 0.00 0.00 0.00 24 1007.5
20260905233137 31 2 3.2 9.7 0.00 0.00 0.00 24 1007.9
20260905232637 32 218 3.2 6.4 0.00 0.00 0.00 24 1007.9
20260905232136 31 320 0.0 6.4 0.00 0.00 0.00 25 1007.8
20260905231636 31 299 6.4 9.7 0.00 0.00 0.00 25 1008.1
20260905231136 31 293 6.4 9.7 0.00 0.00 0.00 25 1008.1
20260905230636 31 327 1.6 9.7 0.00 0.00 0.00 25 1008.3
20260905230136 31 349 6.4 8.0 0.00 0.00 0.00 24 1008.4
20260905225636 30 339 4.8 9.7 0.00 0.00 0.00 26 1008.4
20260905225136 30 346 8.0 8.0 0.00 0.00 0.00 26 1008.4
20260905224635 30 0 3.2 8.0 0.00 0.00 0.00 25 1008.6
20260905224135 30 304 3.2 4.8 0.00 0.00 0.00 27 1008.6
20260905223635 30 346 3.2 6.4 0.00 0.00 0.00 27 1009.0
20260905222620 30 334 8.0 11.3 0.00 0.00 0.00 26 1009.0
20260905220019 28 339 4.8 6.4 0.00 0.00 0.00 31 1009.7
20260905215519 28 355 3.2 9.7 0.00 0.00 0.00 31 1009.7
20260905215019 29 0 3.2 8.0 0.00 0.00 0.00 31 1009.7
20260905214519 28 324 6.4 12.9 0.00 0.00 0.00 31 1009.8